Theta_e
291 289 284 285 287 288 286 285 283 286 290 287 286 288 291 292 293 292 292 293 294 294 296 297 297 307 307 307 306 306 309 311 312 306 306 305 307 306 306 306 308 307 306 305
289 286 290 291 290 289 286 284 283 287 290 288 286 287 289 291 291 291 291 294 295 296 298 299 298 300 304 305 307 306 308 309 313 313 309 308 306 305 306 307 306 307 306 305
285 288 293 291 288 287 284 283 283 284 287 287 286 285 287 291 292 295 294 294 296 296 296 298 299 298 297 300 304 306 307 308 311 310 307 306 306 305 305 305 305 306 306 306
287 291 291 288 288 288 283 288 289 288 284 280 285 279 284 286 290 292 292 293 294 295 297 298 298 299 300 298 302 306 307 308 309 308 308 306 306 306 306 306 306 307 307 307
286 288 288 288 289 290 288 291 288 287 283 281 281 281 282 285 288 289 291 293 294 295 295 295 296 298 300 301 301 304 306 308 308 308 308 307 305 306 305 306 306 306 307 307
289 292 290 290 291 291 292 288 287 285 282 278 280 281 281 283 286 289 290 292 293 293 293 294 296 297 298 299 302 303 306 306 307 308 307 306 306 304 304 304 304 305 306 307
287 288 291 292 287 290 289 283 279 279 279 279 282 281 281 286 290 291 290 290 291 292 292 293 293 293 295 296 297 300 301 301 305 307 307 306 306 305 305 305 305 304 305 305
282 282 287 291 287 285 285 283 279 277 277 278 283 279 283 290 292 292 292 291 291 291 291 292 292 293 293 294 296 296 297 298 300 301 302 304 305 306 306 306 305 306 306 307
282 283 289 290 289 288 284 282 284 280 278 277 280 282 288 290 290 290 290 290 289 290 290 291 292 292 293 293 294 294 295 296 297 299 298 299 301 303 304 305 305 306 306 308
286 282 286 290 289 289 286 288 282 281 276 275 277 278 281 287 287 288 287 287 288 289 290 290 291 291 292 293 293 294 295 294 295 296 297 298 297 299 302 303 304 305 306 306
287 283 285 286 285 283 286 283 283 282 280 278 276 278 285 286 288 286 286 287 288 288 289 289 290 291 291 293 293 293 294 294 295 295 295 296 297 297 296 298 300 302 305 306
288 285 281 285 286 287 286 284 283 279 278 278 278 279 286 285 287 287 287 288 288 289 289 289 289 289 291 291 292 292 292 293 294 294 294 294 295 296 296 296 297 299 300 303
289 283 278 279 283 287 285 286 285 284 281 278 277 278 286 284 285 286 286 286 288 288 288 288 289 288 289 289 291 292 292 292 293 293 293 293 293 295 295 295 296 297 298 299
292 284 282 277 279 282 281 283 284 283 279 279 279 280 281 283 283 283 284 286 287 288 289 290 290 289 288 289 289 290 291 292 292 293 292 292 293 293 295 294 295 296 296 296
283 279 279 281 282 282 282 281 281 281 282 279 281 280 281 281 282 282 283 286 286 287 288 289 289 290 290 291 291 291 291 292 292 292 292 293 293 293 295 295 294 295 295 295
281 276 277 276 280 280 278 279 280 278 278 279 279 277 282 282 281 282 282 285 284 285 287 289 289 290 290 291 291 292 292 292 291 291 292 293 293 293 294 294 294 294 294 294
278 277 275 271 277 276 274 276 277 277 278 278 275 277 281 281 283 283 284 285 284 285 287 287 288 289 290 291 292 291 292 292 292 291 292 292 293 293 294 294 293 294 293 292
277 276 277 273 274 269 276 282 282 280 281 280 280 281 282 282 283 283 284 284 285 286 286 287 288 289 290 291 292 292 293 292 292 291 292 293 293 293 294 293 292 292 292 292
281 278 275 272 271 274 277 280 279 278 280 282 281 282 284 285 284 285 287 288 286 287 288 288 288 289 288 289 291 291 291 291 291 291 290 291 293 293 294 293 293 292 291 292
280 279 275 273 272 271 275 281 284 283 276 284 283 284 284 284 278 281 286 288 287 288 288 287 287 287 286 287 288 287 287 289 288 289 290 291 291 292 292 292 293 293 292 293
275 277 273 274 274 276 280 283 283 276 277 283 284 284 283 281 282 284 287 286 287 286 285 286 285 284 285 287 286 285 286 286 288 289 289 289 289 289 289 290 291 291 292 293
275 272 273 275 274 272 287 283 278 281 283 284 284 284 283 284 285 285 285 284 284 283 283 284 283 284 285 286 286 285 285 288 289 289 289 289 289 290 290 289 290 290 290 291
271 276 272 275 275 281 283 283 285 285 283 283 284 284 284 284 283 283 282 281 282 282 282 283 283 283 285 287 286 285 286 287 287 287 287 288 288 289 289 289 289 290 290 290
277 278 275 276 278 280 281 282 283 283 283 284 284 284 283 282 282 280 280 280 280 281 282 283 283 284 283 284 284 284 285 285 284 283 284 285 285 286 287 288 289 288 289 289
278 277 275 275 278 280 281 282 283 284 285 285 284 284 282 281 280 280 280 280 280 281 282 282 283 283 282 283 284 284 284 285 284 284 285 285 286 286 286 287 288 288 290 290
278 277 274 273 279 279 279 283 285 284 284 284 283 282 281 281 280 280 279 280 280 281 282 282 282 282 282 283 283 283 285 284 283 282 284 284 284 283 284 283 284 288 289 290
Wind_Speed
3 6 1 3 3 2 2 1 2 4 3 3 2 5 7 9 11 15 14 14 14 11 10 9 8 7 9 11 12 12 11 8 9 3 3 2 4 3 3 4 7 7 6 6
6 1 4 1 3 2 2 1 4 4 3 4 2 4 4 8 6 6 9 14 15 15 17 15 13 10 4 7 10 11 12 11 10 7 3 3 4 3 3 3 5 7 7 7
4 3 1 2 2 1 2 4 3 3 4 4 2 4 5 4 6 10 13 8 13 14 15 16 15 11 8 4 7 9 10 10 9 7 5 3 3 2 1 3 4 6 7 7
4 3 1 1 1 5 2 4 3 2 4 3 2 3 2 3 9 11 12 13 13 15 15 15 18 17 14 9 3 4 5 7 7 8 7 7 5 6 4 4 3 5 7 7
5 2 1 0 2 4 5 2 2 0 3 3 2 4 4 1 8 8 10 12 12 12 14 17 17 17 16 13 7 4 4 4 4 6 5 5 3 3 0 2 4 5 5 7
6 3 2 2 2 1 4 4 6 5 3 2 3 4 4 3 2 3 6 10 12 13 14 16 16 16 18 17 15 9 7 5 4 4 4 6 6 2 3 2 4 4 3 4
6 1 3 1 2 2 5 6 4 4 4 4 2 5 0 3 5 3 5 8 9 10 13 15 17 17 18 19 17 15 13 10 6 1 2 4 5 5 7 6 5 5 4 4
4 5 3 4 2 1 3 4 5 3 2 3 3 2 1 2 5 5 5 5 7 10 10 13 14 14 15 17 17 16 14 13 11 10 7 5 5 4 5 6 4 5 5 6
5 5 5 2 1 2 1 1 3 5 3 2 2 3 3 5 6 6 7 7 9 9 10 11 13 13 13 14 14 12 13 13 12 10 7 9 8 5 5 6 5 4 5 6
2 6 2 5 1 4 1 3 2 3 2 4 3 3 3 5 5 4 6 7 7 7 10 11 12 12 11 11 10 12 10 9 8 9 8 7 7 8 7 5 6 6 6 6
4 2 8 3 5 2 5 3 5 3 4 4 2 4 4 2 5 6 4 5 5 7 7 8 9 8 8 10 11 11 12 11 12 10 8 7 8 7 6 6 6 7 6 6
2 2 4 7 2 2 4 4 5 4 3 0 2 3 4 4 4 6 5 5 5 5 6 6 7 8 10 11 11 10 9 10 9 7 8 7 7 7 8 9 8 7 8 7
4 2 4 8 5 6 7 4 2 2 2 4 3 2 4 6 6 5 5 5 4 4 6 6 8 8 8 8 9 9 9 8 8 7 7 7 7 7 7 8 7 8 8 8
1 1 4 6 3 1 6 5 3 2 1 3 4 6 1 3 5 5 6 5 6 7 10 11 10 8 7 7 7 7 8 7 7 7 7 7 7 7 7 7 7 7 7 7
5 1 3 4 5 4 5 3 2 5 5 5 5 8 5 3 4 3 3 6 7 8 10 10 10 11 11 11 8 6 7 8 7 7 7 8 7 7 6 7 6 6 6 7
6 2 4 5 4 4 5 4 2 3 3 3 7 4 0 2 3 2 4 6 6 7 9 9 9 10 11 11 11 11 10 9 6 7 8 7 7 7 7 7 7 7 7 6
1 1 3 5 5 7 3 2 5 1 3 2 2 2 2 3 4 2 2 6 6 6 6 8 10 11 10 11 11 12 13 11 10 8 8 7 8 9 8 8 7 8 7 6
2 2 1 4 6 4 1 3 6 5 3 5 4 3 2 2 3 4 3 4 7 7 8 7 6 10 10 10 9 10 11 11 11 9 10 11 11 11 10 8 7 7 6 7
5 2 1 1 2 4 3 2 1 0 2 1 3 2 2 3 4 6 4 6 5 5 7 6 7 7 8 10 12 12 11 8 9 9 12 13 12 12 12 11 11 9 6 7
5 4 3 0 1 4 2 2 4 3 2 6 4 5 3 1 1 4 6 6 7 8 6 9 11 10 10 10 11 12 13 11 10 12 12 11 13 13 13 13 12 9 9 10
2 1 3 3 3 6 1 4 2 4 3 5 5 5 3 3 4 2 5 5 5 5 9 9 8 8 10 11 11 10 11 11 13 14 13 13 11 12 12 12 11 11 12 12
1 1 3 2 4 6 2 1 1 4 2 5 5 3 2 2 5 4 4 5 6 8 9 10 9 8 10 10 10 12 11 12 12 12 13 13 13 11 10 12 10 9 10 11
3 6 4 6 5 4 2 4 5 5 7 4 3 3 1 3 3 5 6 6 6 7 8 8 8 9 8 9 9 11 12 13 14 13 13 12 13 12 12 13 13 10 9 9
5 3 4 2 4 8 6 6 5 4 4 2 2 2 0 3 4 4 4 5 5 6 6 7 8 9 9 8 8 8 11 12 12 12 12 10 10 12 9 9 8 9 10 11
6 2 3 5 10 8 7 5 5 3 3 4 3 2 4 1 3 3 4 4 5 5 5 6 8 7 8 8 9 9 11 11 11 12 11 11 8 11 11 10 9 9 9 13
6 7 5 7 7 6 6 6 5 6 6 4 1 1 2 1 3 3 4 4 4 4 4 5 7 6 8 9 8 9 12 12 11 11 9 10 9 9 9 9 9 16 20 21
Wind_Direction
7 61 186 245 192 131 125 145 264 264 269 64 44 63 4 346 24 18 9 6 5 357 317 338 324 221 191 183 178 181 175 171 160 139 146 169 210 202 215 209 216 211 210 207
19 239 207 203 144 152 169 267 279 285 332 106 149 77 22 21 19 16 360 9 3 1 5 2 4 3 239 191 191 182 187 173 181 182 162 159 154 203 186 193 217 214 206 205
162 233 323 175 140 189 243 183 220 218 348 67 108 5 23 32 29 27 22 3 13 9 4 6 8 6 357 295 207 188 186 173 181 172 123 94 82 79 134 218 217 213 208 206
231 283 339 112 246 135 280 196 168 154 75 210 59 263 28 29 22 24 8 12 8 5 7 11 13 15 7 336 223 191 170 159 168 158 171 174 179 197 206 194 192 208 205 213
264 335 5 12 229 173 217 60 11 330 114 69 306 92 262 299 25 356 1 9 10 7 12 12 12 16 18 17 24 60 100 124 137 172 180 190 214 239 128 179 211 225 218 217
248 300 256 247 52 34 109 75 40 46 82 28 255 130 322 0 119 8 357 13 13 6 16 21 19 21 23 25 30 29 70 60 97 162 171 193 223 224 233 248 276 276 249 226
333 323 322 34 48 36 73 54 342 355 7 232 298 67 357 21 60 72 39 12 4 12 22 24 22 21 22 24 26 35 40 29 21 43 207 223 229 220 229 230 226 231 231 239
28 344 22 343 88 178 47 136 154 272 235 270 348 124 103 84 78 61 46 20 30 31 27 29 24 24 22 22 23 24 29 33 31 34 12 323 278 247 243 240 234 243 232 240
12 282 321 49 5 98 143 121 172 102 10 37 161 88 87 106 62 51 40 35 25 25 24 27 25 23 19 20 16 15 21 27 24 18 13 23 18 345 289 282 257 257 254 257
345 313 325 295 83 31 97 163 42 17 236 265 301 217 199 160 121 83 50 42 24 17 26 26 24 17 19 19 12 17 19 19 9 16 18 16 10 16 11 360 328 285 272 261
359 99 294 347 32 37 356 13 45 124 141 200 176 246 6 252 137 113 67 57 42 29 19 16 19 15 13 17 16 13 13 11 13 10 3 10 9 6 7 12 356 347 317 293
359 127 284 250 344 327 57 69 60 96 288 181 175 250 9 52 93 107 73 54 37 37 17 12 10 11 16 12 9 6 3 7 360 350 356 360 360 3 12 7 358 350 351 344
325 357 348 348 6 18 45 35 86 189 81 229 164 217 41 49 68 47 67 56 34 18 14 7 16 11 5 0 360 356 350 350 347 345 355 354 357 1 357 353 347 351 350 348
199 119 188 209 258 230 306 331 27 149 181 267 234 163 129 47 72 40 29 17 22 20 15 9 12 6 352 343 342 341 339 338 335 343 346 347 347 344 340 335 340 342 340 341
63 298 331 293 278 255 251 305 313 228 242 205 194 154 179 163 134 78 37 29 20 6 5 1 353 348 349 348 345 337 329 327 332 336 342 332 324 327 328 333 334 329 334 335
358 305 352 280 317 330 276 344 122 18 344 49 87 75 37 65 58 99 50 34 15 356 347 345 344 345 344 343 338 337 336 331 321 322 323 318 325 326 324 322 325 326 322 324
351 59 29 272 336 313 285 36 84 67 15 74 89 62 9 38 27 359 351 27 1 344 331 339 340 339 337 336 336 333 332 331 333 327 323 322 326 327 323 316 319 326 321 318
194 149 142 281 338 234 127 91 130 111 36 49 64 57 43 343 296 270 242 8 352 348 346 338 336 334 334 335 338 337 335 333 334 333 347 346 341 332 325 317 311 307 308 312
176 132 286 320 275 298 259 184 59 310 201 57 134 168 244 286 333 306 54 27 1 355 336 328 339 325 325 334 337 338 334 331 334 340 335 332 332 328 328 327 318 311 304 311
88 77 104 29 271 264 174 317 285 180 222 307 276 240 258 111 226 260 8 1 344 347 351 346 333 335 334 333 334 327 324 328 332 331 325 327 327 322 324 320 321 316 305 301
0 35 183 262 267 285 228 288 312 187 171 273 197 236 246 225 212 286 342 337 343 339 337 339 331 322 324 325 324 325 327 325 326 326 324 321 319 320 310 312 313 312 311 307
259 341 229 189 233 264 219 51 3 251 280 257 252 216 231 275 311 326 336 342 342 337 337 335 329 331 323 323 331 327 327 332 330 327 323 323 320 316 314 310 304 303 308 310
275 203 211 180 236 226 288 237 230 271 250 254 195 139 138 300 319 332 327 329 329 329 328 324 328 323 327 342 343 341 337 342 332 325 321 318 321 325 324 326 323 317 315 311
267 159 218 10 273 255 275 273 248 256 247 146 104 117 347 267 297 297 300 312 320 319 315 319 320 335 352 341 344 344 340 334 328 323 320 326 326 324 321 325 326 325 332 334
218 191 217 254 274 289 286 249 250 233 159 160 155 177 168 231 282 284 297 306 301 296 311 325 347 357 337 338 339 347 342 337 337 336 337 334 333 343 341 345 339 341 342 343
182 204 180 228 234 216 255 272 262 206 217 225 242 207 184 195 273 294 300 283 273 294 318 338 349 344 339 340 358 351 353 354 355 354 344 355 358 348 348 350 350 358 360 1